Overview Statistics Trail Chart Weather Telemetry Raw packets
 

This is the latest recevied weather packets stored in our database for station/object NO9B. If no packets are shown the sender has not sent any weather packets the latest 10 day(s).

<< 78 79 80 81 82 83 84 >>
Time Temp. Humidity Pressure Rain* Wind** Luminosity Snow
1788131293 24.44° C 87% 1014.8 hPa 0 mm - 22 W/m² -
1788130988 24.44° C 87% 1014.8 hPa 0 mm - 17 W/m² -
1788130688 24.44° C 87% 1014.9 hPa 0 mm - 23 W/m² -
1788130383 23.89° C 87% 1014.7 hPa 0 mm - 30 W/m² -
1788130082 23.89° C 87% 1014.8 hPa 0 mm - 35 W/m² -
1788129777 23.89° C 87% 1014.6 hPa 0 mm - 32 W/m² -
1788129474 23.89° C 87% 1014.7 hPa 0 mm - 28 W/m² -
1788129170 23.89° C 87% 1014.6 hPa 0 mm - 25 W/m² -
1788128864 23.89° C 88% 1014.6 hPa 0 mm - 25 W/m² -
1788128559 23.89° C 87% 1014.9 hPa 0 mm - 25 W/m² -
1788128255 23.89° C 87% 1015 hPa 0 mm - 27 W/m² -
1788127952 23.89° C 87% 1014.9 hPa 0 mm - 31 W/m² -
1788127647 23.89° C 87% 1015 hPa 0 mm - 31 W/m² -
1788127345 23.89° C 87% 1015 hPa 0 mm - 34 W/m² -
1788127044 23.89° C 87% 1014.9 hPa 0 mm - 31 W/m² -
1788126739 23.89° C 86% 1014.9 hPa 0 mm - 29 W/m² -
1788126434 23.89° C 86% 1014.9 hPa 0 mm - 35 W/m² -
1788126129 23.89° C 86% 1015.1 hPa 0 mm - 41 W/m² -
1788125828 23.89° C 86% 1014.8 hPa 0 mm - 45 W/m² -
1788125523 23.89° C 85% 1014.8 hPa 0 mm - 51 W/m² -
1788125219 23.89° C 85% 1014.8 hPa 0 mm - 51 W/m² -
1788124915 24.44° C 84% 1014.5 hPa 0 mm - 42 W/m² -
1788124615 24.44° C 83% 1014.6 hPa 0 mm - 32 W/m² -
1788124314 24.44° C 83% 1014.8 hPa 0 mm - 32 W/m² -
1788124010 24.44° C 82% 1014.7 hPa 0 mm - 37 W/m² -

* Rain latest hour (hover to see other rain measurements)
** Current wind speed in m/s (hover to see current wind gust speed)